Regional Weather Roundup
Issued by NWS Upton, NY

Home | Current Version | Previous Version | Text Only | Print | Product List | Glossary On
Versions: 1 2 3 4 5 6 7 8 9 10 11 12 13 14 15 16 17 18 19 20 21 22 23 24 25 26 27 28 29 30 31 32 33 34 35 36 37 38 39 40 41 42 43 44 45 46 47 48 49 50
978
ASUS41 KOKX 080504
RWROKX

REGIONAL WEATHER ROUNDUP
NATIONAL WEATHER SERVICE NEW YORK NY
1200 AM EST MON FEB 08 2016

NOTE: "FAIR" INDICATES FEW OR NO CLOUDS BELOW 12,000 FEET WITH NO
SIGNIFICANT WEATHER AND/OR OBSTRUCTIONS TO VISIBILITY.

NYZ071-072-176-178-NJZ106-104-080600-
NEW YORK CITY METRO AREA


CITY           SKY/WX    TMP DP  RH WIND       PRES   REMARKS
CENTRAL PARK   CLOUDY    39  25  57 E15G22    29.92F WCI  31
LAGUARDIA APRT CLOUDY    40  28  62 NE21      29.91F WCI  30
KENNEDY INTL   CLOUDY    39  28  64 NE15      29.91F WCI  31
NEWARK/LIBERTY CLOUDY    40  28  62 NE18      29.91F WCI  31
BRNX BOT. GARD   N/A     37  23  56 NE20      29.91F WCI  27
TETERBORO      CLOUDY    39  21  48 NE7       29.91F WCI  34
$$

NYZ177-179-078>081-080600-
LONG ISLAND NEW YORK

CITY           SKY/WX    TMP DP  RH WIND       PRES   REMARKS
FARMINGDALE    CLOUDY    39  27  62 NE17G24   29.89F WCI  30
ISLIP          CLOUDY    38  28  67 NE18G25   29.86F WCI  28
SHIRLEY        MOCLDY    37  30  75 NE9       29.89F WCI  30
RIVERHEAD        N/A     37  30  75 SE8       29.87F WCI  31
WESTHAMPTON    CLOUDY    38  31  76 NE16G25   29.89F WCI  29
EAST HAMPTON   FAIR      38  32  79 NE14      29.92F WCI  30
MONTAUK POINT    N/A     40  33  76 NE14G24   29.91F WCI  32
$$

NYZ052-065-067-080600-
HUDSON VALLEY

CITY           SKY/WX    TMP DP  RH WIND       PRES   REMARKS
WHITE PLAINS   CLOUDY    36  21  54 NE9       29.90F WCI  29
NEWBURGH       CLEAR     36  21  55 VRB6      29.94F WCI  31
MONTGOMERY     PTCLDY    30  21  69 N8        29.92F WCI  22
POUGHKEEPSIE   CLOUDY    31  21  66 CALM      29.95F
ALBANY         CLOUDY    28  21  75 N3        30.01F
$$

NJZ001-105-106-008-010-013-015-019>022-104-080600-
NEW JERSEY

CITY           SKY/WX    TMP DP  RH WIND       PRES   REMARKS
NEWARK/LIBERTY CLOUDY    40  28  62 NE18      29.91F WCI  31
TETERBORO      CLOUDY    39  21  48 NE7       29.91F WCI  34
CALDWELL       MOCLDY    38  20  48 E8        29.91F WCI  32
MORRISTOWN     CLOUDY    36  19  51 NE5       29.91F WCI  32
SOMERVILLE     MOCLDY    38  21  50 NE8       29.88F WCI  32
SUSSEX         PTCLDY    28  21  75 CALM      29.91F
ANDOVER          N/A     30  22  72 N3        29.90F
TRENTON        CLOUDY    37  23  56 NE13      29.87F WCI  29
MILLVILLE      CLOUDY    39  31  72 N17G23    29.80F WCI  30
ATLANTIC CITY  CLOUDY    39  33  79 N13       29.78  WCI  31
WRIGHTSTOWN    CLOUDY    37  36  96 N12       29.82F WCI  29
TOMS RIVER     CLOUDY    39  32  75 NE15G23   29.83F WCI  31
BELMAR         CLOUDY    39  28  65 NE13G26   29.84F WCI  32
$$

PAZ047>061-062-071-080600-
EASTERN PENNSYLVANIA

CITY           SKY/WX    TMP DP  RH WIND       PRES   REMARKS
PHILADELPHIA   CLOUDY    41  23  48 NE15G23   29.86F
ALLENTOWN      PTCLDY    33  21  61 NE8       29.89F WCI  26
SCRANTON       CLOUDY    35  19  52 NE7       29.88F WCI  29
$$

CTZ002-004>006-009-010-012-RIZ004-006-007-MAZ004-011-015-080600-
SOUTHERN NEW ENGLAND
 IN CT

CITY           SKY/WX    TMP DP  RH WIND       PRES   REMARKS
BRADLEY INTL   CLOUDY    32  23  69 N8        29.99F WCI  25
HARTFORD       CLOUDY    36  27  69 NE9       29.99F WCI  29
DANBURY        CLOUDY    34  22  61 NE8       29.94F WCI  27
WTRBRY/OXFORD  CLOUDY    34  18  51 NE10G17   29.94F WCI  26
BRIDGEPORT     CLOUDY    38  24  57 NE13      29.93F WCI  30
MERIDEN        CLOUDY    36  23  59 N7        29.97F WCI  30
NEW HAVEN      CLOUDY    36  24  62 NE14G20   29.94F WCI  27
CHESTER        FAIR      36  28  75 NE10      29.96S WCI  28
GROTON         MOCLDY    37  33  85 NE13      29.93F WCI  29
WILLIMANTIC    MOCLDY    35  27  72 NE8       29.98F WCI  29

 IN RI

CITY           SKY/WX    TMP DP  RH WIND       PRES   REMARKS
PROVIDENCE     CLOUDY    35  29  78 NE13      29.99F WCI  26
BLOCK ISLAND   MOCLDY    39  34  81 NE21G29   29.90F WCI  29
WESTERLY       CLOUDY    36  30  79 N8        29.94F WCI  30

 IN MA

CITY           SKY/WX    TMP DP  RH WIND       PRES   REMARKS
BOSTON         CLOUDY    38  30  73 E22       30.03F WCI  27
WORCESTER      CLOUDY    31  24  75 NE9G20    29.97F WCI  23
WESTFIELD      CLOUDY    30  22  72 N9        30.00F WCI  22
PROVINCETOWN   CLOUDY    39  31  72 E23G30    30.01F WCI  28
NANTUCKET      CLOUDY    42  32  67 NE22G33   29.92F
$$

ANZ330-335-338-340-345-350-353-355-080600-
COASTAL MARINE OBSERVATIONS


STATION/POSITION TIME  SKY/WX   TEMP    WIND        PRES    VSBY  WAVE
                                AIR SEA DIR/SP/G                  HT/PER
                 (UTC)          (F)     (DEG/KT/KT) (MB)    (MI)  (FT/S)
NY HARB ENTRANCE 0350            41 44   40/ 21/ 25 1011.2          3/ 4
4S FIRE IS       NOT AVBL
20S FIRE ISLAND  0350            43 43   50/ 23/ 29 1010.9          6/ 5
GREAT SOUTH BAY  NOT AVBL
23SW MTP         0450            42 45   60/ 27/ 33 1010.2          7/ 6
HUDSON CANYON    0350            46 50              1007.9          8/ 7
KINGS POINT      0400            39 39   70/  8/ 11 1012.8
EXECUTION ROCKS  NOT AVBL
CENTRAL LI SOUND 0430            39      60/ 17/ 19   N/A           3/ 4
EASTERN LI SOUND 0400            39 42   40/ 16/ 21   N/A
ROBBINS REEF     0400            40      40/ 19/ 22 1012.1
$$


>>>>>>>>>>>>>>>>>>>>>>>>>>>> KEY <<<<<<<<<<<<<<<<<<<<<<<<<<<
>                                                          <
>     SKY/WX - SKY CONDITION/PRESENT WEATHER               <
>     TMP    - TEMPERATURE IN FAHRENHEIT                   <
>     DP     - DEWPOINT IN FAHRENHEIT                      <
>     RH     - RELATIVE HUMIDITY IN PERCENT                <
>     WIND   - DIRECTION AND SPEED IN MPH                  <
>     PRES   - MEAN SEA LEVEL PRESSURE IN INCHES OF HG     <
>     WCI    - WIND CHILL INDEX                            <
>     VSB    - VISIBILITY IN MILES                         <
>     HX     - HEAT INDEX                                  <
>     TC     - TEMPERATURE IN CELSIUS                      <
>     VRB    - VARIABLE WIND DIRECTION                     <
>                                                          <
>>>>>>>>>>>>>>>>>>>>>>>>>>>> KEY <<<<<<<<<<<<<<<<<<<<<<<<<<<






USA.gov is the U.S. government's official web portal to all federal, state and local government web resources and services.